Regional Weather Roundup
Issued by NWS

Home | Current Version | Previous Version | Text Only | Print | Product List | Glossary On
Versions: 1 2 3 4 5 6 7 8 9 10 11 12 13 14 15 16 17 18 19 20 21 22 23 24 25 26 27 28 29 30 31 32 33 34 35 36 37 38 39 40 41 42 43 44 45 46 47 48 49 50
000
ASUS46 KSTO 161315
RWRCA

NORTHERN AND CENTRAL CA REGIONAL WEATHER ROUNDUP
NATIONAL WEATHER SERVICE SACRAMENTO CA
600 AM PDT WED AUG 16 2017

NOTE: FAIR INDICATES FEW OR NO CLOUDS BELOW 12,000 FEET WITH NO
SIGNIFICANT WEATHER AND/OR OBSTRUCTIONS TO VISIBILITY.

CAZ001-003-161400-
NORTHWEST AREA

CITY           SKY/WX    TMP DP  RH WIND       PRES   REMARKS
CRESCENT CITY  FOG       50  49  96 CALM      29.94S VSB 1/2
UKIAH          CLEAR     54  51  90 S5        29.93R
$$

CAZ006-505>513-161400-
BAY AREA

CITY           SKY/WX    TMP DP  RH WIND       PRES   REMARKS
SANTA ROSA     CLOUDY    54  52  93 VRB3      29.93R
SAN RAFAEL     N/A       57  MM  MM MISG
NAPA           CLOUDY    57  53  86 N9        29.94R
CONCORD        PTCLDY    58  53  84 CALM      29.93R
OAKLAND CITY   N/A      MM  MM  MM MISG
OAKLAND        MOCLDY    60  55  83 S3        29.94R
SAN FRAN CITY  N/A       59  MM  82 MISG
SAN FRAN ARPT  PTCLDY    61  53  75 CALM      29.94R
LIVERMORE      CLOUDY    59  53  80 W6        29.93R
HAYWARD        CLOUDY    62  51  67 SW5       29.94R
REDWOOD CITY   N/A       54  MM  87 MISG
MOFFETT ARPT   CLOUDY    62  55  77 SE3       29.95R
SAN JOSE ARPT  CLOUDY    62  55  77 E8        29.94R
$$
CAZ034-037-514>518-161400-
CENTRAL COAST

CITY           SKY/WX    TMP DP  RH WIND       PRES   REMARKS
WATSONVILLE    CLOUDY    59  55  87 CALM      29.97R
SALINAS        CLOUDY    60  53  77 W8        29.96R
MONTEREY       CLOUDY    59  53  80 S3        29.97R
SAN LUIS OBISP CLOUDY    59  54  83 CALM      29.97R
SANTA MARIA    CLOUDY    59  55  87 CALM      29.98R
$$
CAZ015-016-161400-
NORTHERN SACRAMENTO VALLEY

CITY           SKY/WX    TMP DP  RH WIND       PRES   REMARKS
REDDING        CLEAR     66  59  78 CALM      29.90R
RED BLUFF      CLEAR     64  59  83 CALM      29.91R
OROVILLE       CLEAR     63  56  78 CALM      29.92R
$$
CAZ016>018-161400-
SOUTHERN SACRAMENTO VALLEY

CITY           SKY/WX    TMP DP  RH WIND       PRES   REMARKS
AUBURN         CLEAR     63  57  82 CALM      29.93R
BEALE AFB      CLEAR     59  54  82 CALM      29.90R
LINCOLN        FAIR      59  50  72 S5        29.91R
MARYSVILLE     CLEAR     58  54  86 CALM      29.91R
SAC INTL ARPT  CLEAR     57  54  89 S7        29.90R
MATHER AIRPORT CLEAR     57  54  88 S7        29.91R
DOWNTOWN SAC   N/A       58  MM  MM MISG
SAC EXEC ARPT  CLEAR     57  55  93 S5        29.91R
VACAVILLE      CLEAR     57  53  86 SW6       29.91R
TRAVIS AFB     CLEAR     57  53  86 W18       29.89R
$$
CAZ019>021-161400-
SAN JOAQUIN VALLEY

CITY           SKY/WX    TMP DP  RH WIND       PRES   REMARKS
STOCKTON       CLEAR     58  55  90 N7        29.91R
MODESTO        CLEAR     61  55  81 N12       29.90R
MERCED         CLEAR     59  53  80 W3        29.89R
LEMOORE        CLEAR     60  52  74 W5        29.90R
FRESNO         PTCLDY    63  55  75 NW12      29.90R
HANFORD        CLEAR     63  56  78 N3        29.90R
PORTERVILLE      N/A     62  56  80 S6        29.92
BAKERSFIELD    CLEAR     66  53  63 N3        29.92R
$$
CAZ011-012-071-161400-
NORTHERN MOUNTAINS

CITY           SKY/WX    TMP DP  RH WIND       PRES   REMARKS
YREKA          CLEAR     52  36  54 CALM      30.06R
MOUNT SHASTA   CLEAR     54  39  57 CALM      30.06R
ALTURAS        CLEAR     51  39  63 CALM      30.10R
$$
CAZ011-012-071-161400-
SIERRA NEVADA MTNS

CITY           SKY/WX    TMP DP  RH WIND       PRES   REMARKS
BLUE CANYON    CLEAR     59  47  64 CALM      30.09R
TRUCKEE        PTCLDY    43  43 100 CALM      30.15R
TAHOE VLY ARPT CLEAR     47  45  93 S3        30.15R
MAMMOTH LAKES  FAIR      49  38  64 CALM      30.19R
$$




USA.gov is the U.S. government's official web portal to all federal, state and local government web resources and services.